Вернуться в каталог

STARLINK-5839

АктивенСвязьVLEO
NORAD 57051·PAYLOAD·🇺🇸 United States

Запущен Jun 22, 2023 с Vandenberg Space Force Base

Loading…

Ближайшие Пролёты (ближайшие 24 часа)

TLE

СвежийSource: CelesTrak SupGP

Эпоха: Sep 15, 2026, 01:55 UTC

1 57051C 23088D   26258.08034722  .00060122  00000+0  21774-2 0  2589
2 57051  42.9993 120.8470 0001711 245.3037 346.7643 15.27551065    13

Отслеживайте STARLINK-5839 в реальном времени с AllMySat

Download on the App Store